Tillbaka till svenska Fidonet
English   Information   Debug  
FILM   0/18
FNEWS_PUBLISH   4758
FN_SYSOP   42039
FN_SYSOP_OLD1   71952
FTP_FIDO   0/2
FTSC_PUBLIC   0/13899
FUNNY   4512/4886
GENEALOGY.EUR   0/71
GET_INFO   105
GOLDED   0/408
HAM   2343/16404
HOLYSMOKE   996/6791
HOT_SITES   0/1
HTMLEDIT   0/71
HUB203   466
HUB_100   264
HUB_400   39
HUMOR   0/29
IC   0/2851
INTERNET   0/424
INTERUSER   0/3
IP_CONNECT   719
JAMNNTPD   0/233
JAMTLAND   0/47
KATTY_KORNER   0/41
LAN   0/16
LINUX-USER   0/19
LINUXHELP   0/1155
LINUX   0/22268
LINUX_BBS   0/957
mail   18.68
mail_fore_ok   249
MENSA   0/341
MODERATOR   0/102
MONTE   977/992
MOSCOW_OKLAHOMA   0/1245
MUFFIN   0/783
MUSIC   0/321
N203_STAT   938
N203_SYSCHAT   313
NET203   321
NET204   69
NET_DEV   0/10
NORD.ADMIN   0/101
NORD.CHAT   0/2572
NORD.FIDONET   189
NORD.HARDWARE   0/28
NORD.KULTUR   0/114
NORD.PROG   0/32
NORD.SOFTWARE   0/88
NORD.TEKNIK   0/58
NORD   0/453
OCCULT_CHAT   0/93
OS2BBS   0/787
OS2DOSBBS   0/580
OS2HW   0/42
OS2INET   0/37
OS2LAN   0/134
OS2PROG   0/36
OS2REXX   0/113
OS2USER-L   207
OS2   0/4806
OSDEBATE   14015/18996
PASCAL   0/490
PERL   0/457
PHP   0/45
POINTS   0/405
POLITICS   0/29554
POL_INC   11028/14731
PSION   103
R20_ADMIN   1132
R20_AMATORRADIO   0/2
R20_BEST_OF_FIDONET   14
R20_CHAT   0/893
R20_DEPP   0/3
R20_DEV   399
R20_ECHO2   1671
R20_ECHOPRES   0/35
R20_ESTAT   0/719
R20_FIDONETPROG...
...RAM.MYPOINT
  0/2
R20_FIDONETPROGRAM   0/22
R20_FIDONET   0/248
R20_FILEFIND   0/24
R20_FILEFOUND   0/22
R20_HIFI   0/3
R20_INFO2   3562
R20_INTERNET   0/12940
R20_INTRESSE   0/60
R20_INTR_KOM   0/99
R20_KANDIDAT.CHAT   42
R20_KANDIDAT   28
R20_KOM_DEV   112
R20_KONTROLL   0/13360
R20_KORSET   0/18
R20_LOKALTRAFIK   0/24
R20_MODERATOR   0/1852
R20_NC   76
R20_NET200   245
R20_NETWORK.OTH...
...ERNETS
  0/13
R20_OPERATIVSYS...
...TEM.LINUX
  0/44
R20_PROGRAMVAROR   0/1
R20_REC2NEC   534
R20_SFOSM   0/341
R20_SF   0/108
R20_SPRAK.ENGLISH   0/1
R20_SQUISH   107
R20_TEST   2
R20_WORST_OF_FIDONET   20
RAR   0/9
RA_MULTI   106
RA_UTIL   0/162
REGCON.EUR   0/2066
REGCON   0/13
SCIENCE   0/1206
SF   0/239
SHAREWARE_SUPPORT   4525/5146
SHAREWRE   0/14
SIMPSONS   0/169
STATS_OLD1   0/2539.065
STATS_OLD2   0/2530
STATS_OLD3   0/2395.095
STATS_OLD4   905/1692.25
SURVIVOR   0/495
SYSOPS_CORNER   0/3
SYSOP   0/84
TAGLINES   0/112
TEAMOS2   0/4530
TECH   0/2617
TEST.444   0/105
TRAPDOOR   0/19
TREK   0/755
TUB   0/290
UFO   0/40
UNIX   0/1316
USA_EURLINK   0/102
USR_MODEMS   0/1
VATICAN   2075/2740
VIETNAM_VETS   0/14
VIRUS   0/378
VIRUS_INFO   0/201
VISUAL_BASIC   0/473
WHITEHOUSE   3246/5187
WIN2000   0/101
WIN32   0/30
WIN95   1660/4291
WIN95_OLD1   14803/70272
WINDOWS   735/1517
WWB_SYSOP   0/419
WWB_TECH   0/810
ZCC-PUBLIC   0/1
ZEC   4

 
4DOS   0/134
ABORTION   0/7
ALASKA_CHAT   0/506
ALLFIX_FILE   0/1313
ALLFIX_FILE_OLD1   0/7997
ALT_DOS   0/152
AMATEUR_RADIO   0/1039
AMIGASALE   0/14
AMIGA   0/331
AMIGA_INT   0/1
AMIGA_PROG   0/20
AMIGA_SYSOP   0/26
ANIME   0/15
ARGUS   0/924
ASCII_ART   0/340
ASIAN_LINK   0/651
ASTRONOMY   0/417
AUDIO   0/92
AUTOMOBILE_RACING   0/105
BABYLON5   14975/17862
BAG   135
BATPOWER   0/361
BBBS.ENGLISH   0/382
BBSLAW   0/109
BBS_ADS   0/5290
BBS_INTERNET   0/507
BIBLE   0/3563
BINKD   0/1119
BINKLEY   0/215
BLUEWAVE   0/2173
CABLE_MODEMS   0/25
CBM   0/46
CDRECORD   0/66
CDROM   0/20
CLASSIC_COMPUTER   0/378
COMICS   0/15
CONSPRCY   0/899
COOKING   39917
COOKING_OLD1   0/24719
COOKING_OLD2   0/40862
COOKING_OLD3   0/37489
COOKING_OLD4   0/35496
COOKING_OLD5   9370
C_ECHO   0/189
C_PLUSPLUS   0/31
DIRTY_DOZEN   0/201
DOORGAMES   0/2155
DOS_INTERNET   0/196
duplikat   6102
ECHOLIST   6778/18295
EC_SUPPORT   0/318
ELECTRONICS   0/359
ELEKTRONIK.GER   1534
ENET.LINGUISTIC   0/13
ENET.POLITICS   0/4
ENET.SOFT   0/11701
ENET.SYSOP   34210
ENET.TALKS   0/32
ENGLISH_TUTOR   0/2000
EVOLUTION   0/1335
FDECHO   0/217
FDN_ANNOUNCE   0/7068
FIDONEWS   24756
FIDONEWS_OLD1   0/49742
FIDONEWS_OLD2   0/35949
FIDONEWS_OLD3   8062/30874
FIDONEWS_OLD4   0/37224
FIDO_SYSOP   12913
FIDO_UTIL   0/180
FILEFIND   0/209
FILEGATE   0/212
Möte HAM, 16404 texter
 lista första sista föregående nästa
Text 1137, 766 rader
Skriven 2006-07-28 02:23:15 av Amsat List (1:323/120.0)
Ärende: [keps] orb06208.amsa
============================
[keps] orb06208.amsa


SB KEPS @ AMSAT  $ORB06208.O
Orbital Elements  06208.OSCAR

HR AMSAT ORBITAL ELEMENTS FOR OSCAR SATELLITES
FROM WA5QGD FORT WORTH,TX July 27, 2006
Send SUBSCRIBE KEPS/UNSUBSCRIBE KEPS to majordomo@amsat.org only
BID: ORB06208.O
TO ALL RADIO AMATEURS BT

Satellite: AO-07
Catalog number: 07530
Epoch time:      06207.69076020
Element set:    0640
Inclination:      101.5652 deg
RA of node:       249.6313 deg
Eccentricity:    0.0011919
Arg of perigee:   168.5386 deg
Mean anomaly:     191.5950 deg
Mean motion:   12.53571496 rev/day
Decay rate:       -2.8e-07 rev/day^2
Epoch rev:           45033
Checksum:              293

Satellite: AO-10
Catalog number: 14129
Epoch time:      06204.71592583
Element set:    0298
Inclination:      027.3791 deg
RA of node:       324.0303 deg
Eccentricity:    0.6032883
Arg of perigee:   303.5686 deg
Mean anomaly:     012.7728 deg
Mean motion:   02.05862933 rev/day
Decay rate:        9.5e-07 rev/day^2
Epoch rev:           17380
Checksum:              303

Satellite: UO-11
Catalog number: 14781
Epoch time:      06207.61471846
Element set:    0133
Inclination:      098.2062 deg
RA of node:       218.6680 deg
Eccentricity:    0.0009792
Arg of perigee:   133.9021 deg
Mean anomaly:     226.3000 deg
Mean motion:   14.79446215 rev/day
Decay rate:       3.98e-06 rev/day^2
Epoch rev:           20159
Checksum:              289

Satellite: RS-10/11
Catalog number: 18129
Epoch time:      06207.76203322
Element set:    0070
Inclination:      082.9258 deg
RA of node:       298.8847 deg
Eccentricity:    0.0011744
Arg of perigee:   351.7495 deg
Mean anomaly:     008.3462 deg
Mean motion:   13.72776626 rev/day
Decay rate:        1.8e-07 rev/day^2
Epoch rev:           95658
Checksum:              325

Satellite: RS-15
Catalog number: 23439
Epoch time:      06207.92730850
Element set:    0989
Inclination:      064.8146 deg
RA of node:       172.9497 deg
Eccentricity:    0.0167217
Arg of perigee:   247.1663 deg
Mean anomaly:     111.1525 deg
Mean motion:   11.27552534 rev/day
Decay rate:       -3.9e-07 rev/day^2
Epoch rev:           47702
Checksum:              318

Satellite: FO-29
Catalog number: 24278
Epoch time:      06208.62280235
Element set:     282
Inclination:      098.5095 deg
RA of node:       207.5605 deg
Eccentricity:    0.0350140
Arg of perigee:   204.7467 deg
Mean anomaly:     153.6513 deg
Mean motion:   13.52922722 rev/day
Decay rate:        6.0e-08 rev/day^2
Epoch rev:           49101
Checksum:              286

Satellite: SO-33
Catalog number: 25509
Epoch time:      06208.77954492
Element set:     707
Inclination:      031.4299 deg
RA of node:       259.8181 deg
Eccentricity:    0.0355191
Arg of perigee:   111.3249 deg
Mean anomaly:     252.5666 deg
Mean motion:   14.28112296 rev/day
Decay rate:       2.02e-06 rev/day^2
Epoch rev:           40484
Checksum:              313

Satellite: AO-40
Catalog number: 26609
Epoch time:      06207.20731776
Element set:     759
Inclination:      006.2639 deg
RA of node:       229.5693 deg
Eccentricity:    0.7957010
Arg of perigee:   184.3191 deg
Mean anomaly:     156.3443 deg
Mean motion:   01.25585677 rev/day
Decay rate:       -7.4e-07 rev/day^2
Epoch rev:            2634
Checksum:              324

Satellite: VO-52
Catalog number: 28650
Epoch time:      06207.84475388
Element set:     387
Inclination:      097.8706 deg
RA of node:       280.1730 deg
Eccentricity:    0.0026412
Arg of perigee:   230.9576 deg
Mean anomaly:     128.9296 deg
Mean motion:   14.81148225 rev/day
Decay rate:       4.60e-06 rev/day^2
Epoch rev:            6625
Checksum:              325

/EX
SB KEPS @ AMSAT  $ORB06208.D
Orbital Elements  06208.MICROS

HR AMSAT ORBITAL ELEMENTS FOR THE MICROSATS
FROM WA5QGD FORT WORTH,TX July 27, 2006
Send SUBSCRIBE KEPS/UNSUBSCRIBE KEPS to majordomo@amsat.org only
BID: ORB06208.D
TO ALL RADIO AMATEURS BT

Satellite: AO-16
Catalog number: 20439
Epoch time:      06208.61358308
Element set:     805
Inclination:      098.1865 deg
RA of node:       216.2826 deg
Eccentricity:    0.0012035
Arg of perigee:   074.3284 deg
Mean anomaly:     285.9223 deg
Mean motion:   14.31728228 rev/day
Decay rate:        1.0e-08 rev/day^2
Epoch rev:           86210
Checksum:              290

Satellite: WO-18
Catalog number: 20441
Epoch time:      06208.59800645
Element set:       4
Inclination:      098.1861 deg
RA of node:       220.8903 deg
Eccentricity:    0.0012680
Arg of perigee:   074.8783 deg
Mean anomaly:     285.3797 deg
Mean motion:   14.31798499 rev/day
Decay rate:        1.6e-07 rev/day^2
Epoch rev:           86216
Checksum:              325

Satellite: LO-19
Catalog number: 20442
Epoch time:      06207.65863128
Element set:     742
Inclination:      098.1874 deg
RA of node:       224.8776 deg
Eccentricity:    0.0012905
Arg of perigee:   077.3803 deg
Mean anomaly:     282.8837 deg
Mean motion:   14.31971146 rev/day
Decay rate:       -9.0e-08 rev/day^2
Epoch rev:           86210
Checksum:              321

Satellite: UO-22
Catalog number: 21575
Epoch time:      06207.45985695
Element set:    0760
Inclination:      098.2980 deg
RA of node:       163.9359 deg
Eccentricity:    0.0006882
Arg of perigee:   319.8281 deg
Mean anomaly:     040.2407 deg
Mean motion:   14.39556252 rev/day
Decay rate:       -2.3e-07 rev/day^2
Epoch rev:           78866
Checksum:              342

